Torna al catalogo

STARLINK-36171

AttivoComunicazioniVLEO
NORAD 67027·PAYLOAD·🇺🇸 United States

Lanciato Dec 10, 2025 da Vandenberg Space Force Base

Loading…

Prossimi Passaggi (prossime 24 ore)

TLE

AggiornatoSource: CelesTrak SupGP

Epoca: Sep 14, 2026, 21:39 UTC

1 67027C 25293AA  26257.90256944 -.00041532  00000+0 -34808-2 0  2572
2 67027  70.0020 337.2313 0003602 271.3130  96.1159 14.98347496    10

Traccia STARLINK-36171 in tempo reale con AllMySat

Download on the App Store